Theta_e
317 317 317 316 317 318 319 320 319 320 319 319 317 315 315 332 334 334 333 333 340 341 340 341 337 340 343 343 340 341 340 338 338 338 336 336 333 330 329 329 330 329 326 325
317 316 316 318 319 320 321 320 319 318 319 318 317 319 326 333 334 334 334 338 339 340 340 338 338 341 343 345 344 342 341 341 339 338 335 333 330 329 330 329 329 325 321 316
317 317 318 319 319 321 320 320 319 319 320 319 318 318 343 344 344 340 344 342 341 340 340 334 336 340 341 344 343 343 343 341 340 338 336 332 332 329 329 328 324 320 317 316
316 316 318 318 320 320 320 318 320 320 321 320 318 321 323 346 347 344 344 342 339 337 335 332 335 336 338 340 343 343 341 341 340 340 338 336 335 332 328 326 320 318 317 317
321 319 318 319 318 320 320 320 320 321 320 320 321 318 316 342 348 346 341 338 338 335 333 331 332 334 336 339 339 341 341 341 340 340 339 337 334 327 321 317 316 314 313 316
320 320 319 319 319 319 320 321 319 317 317 320 320 319 319 333 344 344 342 336 336 341 336 333 333 333 332 334 336 335 336 336 335 335 333 331 327 321 318 315 312 311 311 310
316 317 319 321 320 320 319 317 320 321 320 320 319 320 320 323 327 344 343 335 338 338 336 333 330 330 329 330 330 330 331 328 329 329 326 323 321 317 314 311 310 310 309 308
316 317 317 319 320 320 318 317 320 323 321 320 320 324 324 335 333 341 339 336 338 335 335 335 330 328 328 328 326 325 324 322 322 320 318 315 314 313 311 310 309 309 307 307
318 319 319 320 320 319 321 320 318 319 320 322 321 326 338 340 345 344 341 337 335 332 331 331 328 327 326 325 324 322 321 318 315 314 313 312 311 311 310 309 309 307 307 307
316 319 319 318 320 319 319 318 321 317 322 322 320 328 339 340 342 339 339 337 333 330 329 328 326 325 325 324 323 321 320 316 316 314 313 313 312 311 309 309 308 307 307 306
315 316 319 318 318 318 317 319 319 317 319 321 321 321 320 336 339 340 340 336 332 329 329 328 325 326 325 324 323 321 318 317 316 315 313 312 310 310 310 309 309 308 308 306
318 314 317 317 317 318 317 318 319 320 321 323 321 321 321 333 336 338 336 334 330 329 328 326 325 324 324 323 322 320 319 317 315 314 313 311 310 310 311 311 309 309 307 307
317 316 319 318 317 319 320 319 318 318 317 324 328 326 325 333 333 333 333 331 329 328 327 325 324 322 322 323 322 319 318 316 315 313 312 310 311 312 311 310 310 309 308 307
320 317 319 322 320 318 320 322 318 318 320 320 322 322 327 333 333 332 331 330 330 329 328 326 323 321 321 320 319 317 316 315 313 312 311 311 312 310 310 310 309 309 309 309
316 319 320 320 321 323 321 323 321 319 319 321 322 323 320 331 333 332 331 331 331 330 328 326 324 321 319 317 317 316 315 312 311 309 310 310 311 310 310 309 309 308 309 308
315 316 319 318 320 323 323 321 321 322 321 321 321 321 322 329 330 331 332 332 332 330 328 326 325 321 318 315 315 314 313 312 310 311 310 309 310 310 310 308 307 308 307 305
316 315 318 317 322 325 326 323 322 323 321 322 324 323 335 336 333 333 332 332 332 331 329 327 323 321 318 315 315 313 313 312 310 309 310 310 310 309 308 307 307 307 306 306
317 314 318 319 325 328 325 322 322 323 322 322 326 329 335 335 333 332 331 332 332 331 329 325 322 320 317 316 315 314 313 311 309 309 310 309 308 307 307 307 307 306 306 305
318 313 316 320 325 325 322 326 324 323 323 328 328 332 334 332 331 332 329 330 331 329 326 324 320 318 317 316 314 313 310 308 309 310 309 308 307 308 308 307 306 306 305 305
313 314 317 320 331 332 325 325 326 327 327 329 332 331 334 333 337 333 328 328 326 323 320 318 318 317 316 314 313 311 307 310 310 308 308 308 308 308 307 307 306 306 306 304
316 320 319 318 320 322 324 329 327 329 326 330 330 331 333 335 330 327 326 323 321 318 316 316 316 314 314 312 309 309 310 309 308 307 307 308 308 308 308 306 304 304 304 305
320 322 324 322 323 322 326 330 331 326 328 329 328 330 330 327 326 325 322 319 317 314 314 313 312 312 310 308 311 309 309 308 308 308 309 309 308 306 306 305 304 304 305 305
323 322 323 324 323 321 325 325 325 326 330 330 328 328 329 326 324 323 320 317 316 314 313 311 311 308 309 310 309 308 309 308 309 309 308 308 307 304 304 304 303 304 304 304
322 325 325 324 322 325 326 327 328 329 329 329 329 329 327 325 322 320 318 317 316 313 311 310 309 308 308 309 309 309 308 309 309 308 308 308 305 304 302 301 303 304 303 303
313 316 325 327 327 328 327 326 328 330 329 330 329 328 326 324 323 321 320 318 314 311 309 309 307 308 309 309 310 309 309 309 308 308 308 307 306 305 301 302 304 304 302 302
316 322 327 328 329 328 326 327 327 331 331 330 329 328 326 326 325 323 318 314 312 310 309 308 308 308 309 310 310 309 309 308 308 308 307 307 307 302 302 303 304 304 302 303
Wind_Speed
2 3 6 7 6 4 1 1 3 11 10 4 8 11 10 3 7 9 9 10 13 9 8 10 14 14 18 18 22 20 24 21 23 23 22 21 23 19 15 9 2 4 4 6
3 6 8 4 3 3 3 5 9 9 8 4 9 8 4 5 6 14 12 12 12 10 8 8 16 16 17 19 18 20 23 22 19 18 18 20 20 14 10 6 2 0 3 5
7 7 4 4 3 3 3 4 7 7 7 4 5 6 6 5 5 3 4 2 4 15 16 10 12 13 17 19 19 21 21 19 15 13 13 16 10 9 6 3 2 1 3 5
6 6 7 4 6 6 6 8 10 6 2 2 2 4 5 4 2 2 1 4 5 6 7 9 13 14 16 18 17 15 13 10 8 7 8 8 6 5 3 2 2 4 6 5
7 2 4 6 10 7 11 6 8 7 4 3 2 3 6 4 5 6 6 3 5 6 8 9 12 15 19 20 18 15 13 12 10 7 6 6 5 6 6 5 4 3 4 2
7 1 6 7 5 7 7 3 3 4 2 2 4 5 4 6 9 5 3 4 7 8 9 9 13 17 20 19 17 16 16 15 12 10 9 8 8 7 5 3 2 3 4 7
6 5 3 3 7 2 4 5 3 4 4 5 4 3 8 3 8 14 16 10 7 8 10 12 11 12 17 19 18 16 17 17 14 11 9 8 7 6 5 3 4 6 11 12
6 8 7 4 7 8 6 8 5 6 4 6 4 5 5 6 12 5 8 9 6 8 7 8 8 13 17 17 18 17 17 17 13 12 11 10 9 7 5 7 9 9 8 6
6 6 5 5 6 8 2 4 5 5 2 2 4 3 2 6 10 11 12 11 9 7 7 7 9 14 17 19 16 15 16 14 12 12 11 9 6 6 7 5 4 5 5 7
4 6 7 9 3 3 6 5 2 3 4 4 4 3 5 4 7 8 12 14 11 10 10 10 12 17 22 20 18 15 13 12 12 9 7 6 4 2 1 1 2 4 5 8
5 5 18 2 5 8 1 1 2 4 5 6 3 6 8 13 15 19 16 13 15 14 13 11 15 24 23 21 20 18 14 12 8 5 4 3 4 3 3 3 3 5 6 6
1 4 7 13 12 5 6 8 7 4 6 3 4 7 4 13 19 14 13 14 14 15 13 12 16 20 20 19 17 14 12 10 8 7 6 6 4 4 5 6 6 6 7 7
2 2 4 11 5 3 5 7 5 3 4 7 5 6 3 8 13 14 16 15 15 13 12 9 10 12 18 23 22 18 16 13 12 11 10 8 6 7 7 6 7 9 10 11
4 4 7 7 6 5 5 7 7 7 3 4 8 7 4 8 14 15 16 17 16 14 15 12 10 16 20 23 25 22 18 17 15 14 11 9 9 6 5 7 9 12 14 17
3 6 6 7 9 10 17 7 7 9 7 7 12 9 11 15 18 22 24 16 16 17 16 15 14 14 17 21 25 24 23 19 15 14 12 10 9 7 8 10 11 13 14 13
6 4 3 7 8 6 7 15 18 8 4 6 6 7 5 4 7 11 20 20 20 19 17 16 14 18 18 21 27 26 23 19 14 12 10 8 7 9 10 8 7 9 7 11
3 3 2 6 4 9 7 11 16 11 5 8 7 9 5 3 15 17 19 22 23 22 19 16 15 21 21 26 30 28 22 15 13 10 8 4 5 5 5 5 6 10 12 13
5 3 2 4 3 6 8 6 8 18 11 8 4 6 11 9 8 9 16 23 20 16 16 14 20 20 23 29 28 23 17 14 11 8 4 4 4 4 4 7 9 11 12 11
17 5 3 4 4 9 16 4 2 6 11 9 10 5 6 9 6 2 8 13 16 15 13 19 23 27 29 30 26 21 16 12 9 4 7 4 3 4 6 9 11 11 12 15
15 12 8 3 5 7 5 5 7 2 10 4 6 10 15 14 7 6 12 9 8 16 21 23 27 29 31 28 24 19 15 11 7 6 3 2 3 5 8 10 12 15 16 18
1 2 12 7 6 9 6 6 4 7 13 7 10 13 17 12 3 8 15 10 17 21 24 27 29 28 30 24 20 18 13 10 6 3 1 2 5 8 10 10 13 15 18 17
7 3 5 3 5 15 6 4 10 6 2 5 6 8 9 10 10 14 15 16 17 21 26 30 29 27 22 19 17 16 11 9 5 2 2 3 5 7 9 12 13 16 15 14
7 10 7 8 7 7 7 7 5 5 5 5 9 6 14 15 13 13 13 15 14 22 22 24 33 26 20 17 15 14 10 7 3 1 3 5 6 8 9 10 13 15 15 12
6 5 5 1 18 15 10 7 6 7 6 5 8 17 18 19 17 18 16 13 11 15 22 30 28 25 21 16 14 11 9 5 3 0 1 6 9 9 11 11 13 14 12 5
7 9 6 8 14 6 9 8 6 8 10 12 12 17 20 22 19 21 18 16 17 15 16 27 25 24 20 18 12 11 8 6 2 1 4 6 9 12 11 10 13 10 6 3
5 4 8 10 4 10 7 6 5 11 14 17 18 17 16 18 17 17 15 23 27 21 23 24 23 23 20 17 12 13 7 4 1 3 5 9 11 10 10 11 8 7 2 4
Wind_Direction
181 107 212 230 205 204 253 204 279 285 274 258 256 254 287 116 139 173 194 185 198 156 149 142 111 126 117 131 154 166 169 159 167 163 153 158 163 162 158 162 187 308 335 323
10 245 226 212 203 222 280 304 286 284 270 139 299 344 31 163 217 199 193 204 176 140 133 88 105 108 106 110 131 148 163 163 164 164 164 169 164 165 178 179 176 225 347 338
188 225 119 175 257 260 257 232 276 244 322 298 337 351 353 26 23 75 28 321 176 164 156 124 102 99 112 111 120 137 149 158 164 169 158 153 153 146 171 153 142 44 344 335
222 250 233 190 233 167 273 198 246 268 287 226 51 275 315 330 17 332 146 133 108 111 90 121 118 112 118 119 124 134 147 164 143 143 157 162 171 165 161 143 29 345 331 286
231 206 188 201 229 151 239 145 224 244 213 108 335 71 281 355 294 253 243 196 133 127 129 133 120 125 128 128 128 127 135 136 143 156 171 189 160 144 130 101 45 2 30 49
225 255 166 219 250 171 260 287 77 70 106 53 247 140 265 211 208 234 255 211 148 124 113 117 127 129 129 128 123 141 141 130 136 143 138 144 147 139 118 96 88 63 31 22
339 269 251 215 304 341 117 73 320 335 346 217 206 102 230 226 227 202 201 189 151 118 125 143 144 127 134 144 150 148 142 132 137 139 139 145 149 143 140 107 72 25 7 355
202 301 200 181 185 214 194 160 160 226 219 244 260 234 253 271 246 205 126 134 116 102 111 130 130 149 160 160 155 154 143 132 134 134 136 134 136 131 93 38 18 10 358 353
167 265 272 178 191 149 250 200 207 129 355 53 232 284 286 15 62 112 130 129 145 139 143 149 159 168 173 168 154 151 133 128 132 135 134 128 104 50 30 26 14 0 356 345
265 273 237 257 150 247 168 176 16 348 156 241 283 261 236 221 171 159 161 165 161 155 160 170 166 180 179 163 149 150 142 141 139 136 121 87 50 50 42 266 321 345 335 330
153 159 264 51 184 218 289 193 58 143 143 179 219 258 218 201 187 185 187 172 169 171 177 176 172 182 174 159 158 152 153 150 149 130 121 152 192 167 211 250 289 322 306 312
323 178 255 244 248 245 208 212 160 142 264 244 178 257 217 201 191 177 170 180 180 182 173 177 174 172 164 158 162 161 160 156 166 172 191 203 204 203 247 259 266 287 302 291
302 341 353 340 345 29 211 211 178 130 92 197 192 261 348 133 152 172 180 185 183 173 169 157 163 168 170 173 173 178 173 173 179 194 201 207 200 228 242 258 276 269 282 290
141 172 180 212 237 294 248 215 188 161 148 224 219 242 235 163 164 174 186 189 183 173 172 166 172 177 174 177 180 181 181 184 191 196 203 209 214 232 250 267 274 278 286 286
174 217 193 245 253 269 247 233 193 182 207 190 253 207 231 189 182 186 188 168 171 176 177 174 179 174 177 172 182 184 183 187 193 194 206 219 219 244 264 275 281 287 289 297
325 283 293 282 284 336 282 243 237 231 176 239 248 256 219 173 127 160 180 175 178 175 180 181 177 170 174 171 176 178 183 188 191 200 201 211 236 264 267 279 291 296 295 312
257 213 1 271 335 319 292 230 228 227 192 174 210 230 144 168 179 184 180 180 179 180 174 184 174 178 171 172 179 180 182 181 188 193 188 225 260 229 231 274 295 299 302 315
238 168 183 270 2 252 250 313 210 221 217 195 166 181 180 187 193 182 184 177 177 169 173 173 171 167 164 177 179 176 174 176 178 177 192 185 183 217 267 295 303 309 311 315
207 176 233 210 198 284 293 286 318 174 248 196 195 173 142 114 85 44 182 185 177 175 162 162 158 160 170 173 171 167 168 166 160 177 165 185 241 279 289 301 310 308 320 320
185 204 195 172 195 238 303 223 206 152 291 218 157 167 151 145 152 218 176 139 117 119 137 135 147 157 162 164 164 161 156 160 163 164 189 231 287 292 300 313 314 311 315 322
358 282 207 222 233 264 231 277 357 178 248 186 181 176 166 180 207 129 121 106 119 125 126 136 141 146 155 158 158 147 150 155 156 164 192 285 300 298 305 312 324 323 322 320
230 212 224 148 183 256 181 137 181 227 301 167 169 161 153 120 115 116 119 125 126 126 126 134 132 143 148 151 154 143 151 148 154 161 311 305 314 324 322 322 325 326 334 328
241 219 244 188 216 240 240 215 236 164 181 225 145 138 138 129 121 115 117 115 122 127 127 133 135 142 144 150 157 144 149 150 151 160 319 331 335 334 341 333 347 346 340 327
317 312 235 102 251 248 257 245 200 190 158 170 145 145 142 129 125 117 112 111 114 126 137 138 138 140 143 157 149 143 145 150 166 278 4 340 337 335 338 346 351 335 329 317
261 300 281 280 286 277 266 255 228 148 122 124 136 142 143 134 139 135 138 131 122 134 146 139 144 146 152 154 152 157 170 175 175 359 337 334 333 333 339 346 340 334 328 315
209 271 252 253 273 294 254 274 247 158 150 148 140 141 154 145 144 146 143 132 138 148 150 143 152 152 153 147 159 168 174 188 219 324 340 340 337 346 341 331 340 338 317 299